[[{"header":{"parameterUnit":"m.s-1","parameterCategory":1,"la1":30.2992,"la2":30.254,"lo1":-89.0895,"lo2":-89.0443,"dy":0.0025,"dx":0.0025,"nx":19,"ny":19,"refTime":"2026-04-03T09:00:00:Z","depth":0,"parameterNumber":2,"parameterNumberName":"U-component_of_WINDS"},"data":[0,0,0,-4.8431,-4.8434,-4.8563,-4.8564,-4.8735,-4.8737,0,0,0,0,0,0,0,0,0,0,0,-4.8397,-4.8398,-4.8431,-4.8434,-4.8563,-4.8564,-4.8735,-4.8737,0,0,0,0,0,0,0,0,0,0,0,-4.8396,-4.8398,-4.8399,-4.8434,-4.8563,-4.8564,-4.8735,-4.8635,0,0,0,0,0,0,0,0,0,0,-4.8508,-4.848,-4.8397,-4.8399,-4.8435,-4.8563,-4.8564,-4.863,-4.8641,-4.8679,0,-4.8715,0,-4.8729,-4.8749,-4.8749,0,0,0,-4.843,-4.8471,-4.8502,-4.8399,-4.8436,-4.8563,-4.8504,-4.8636,-4.8648,-4.8694,-4.8718,-4.8724,-4.8732,-4.875,-4.8751,-4.8987,-4.8988,0,0,-4.8423,-4.8422,-4.8494,-4.8511,-4.8492,-4.85,-4.8508,-4.8643,-4.8668,-4.8718,-4.8728,-4.8735,-4.8751,-4.8752,-4.8985,-4.8987,0,0,0,-4.8405,-4.8417,-4.8445,-4.8504,-4.8527,-4.8504,-4.8513,-4.8662,-4.8672,-4.873,-4.8737,-4.8752,-4.8754,-4.8984,-4.8986,-4.9045,0,0,0,-4.8401,-4.8406,-4.8442,-4.8442,-4.8525,-4.8596,-4.8529,-4.8662,-4.8678,-4.8736,-4.8752,-4.8756,-4.8983,-4.8985,-4.904,-4.9072,0,0,0,-4.8387,-4.8404,-4.8425,-4.8442,-4.8497,-4.8594,-4.8611,-4.8666,-4.8682,-4.875,-4.8757,-4.8982,-4.8985,-4.9036,-4.9065,-4.9132,0,0,0,-4.8371,-4.8475,-4.8426,-4.8546,-4.8496,-4.8631,-4.861,-4.8711,-4.8776,-4.8753,-4.8983,-4.8986,-4.9035,-4.9061,-4.9128,-4.9186,-4.9211,0,0,-4.8501,-4.8491,-4.8562,-4.8521,-4.8664,-4.8611,-4.8763,-4.8824,-4.8832,-4.8935,-4.894,-4.9042,-4.9065,-4.9131,-4.9357,-4.9377,0,0,0,-4.8602,-4.8653,-4.8691,-4.8753,-4.8804,-4.8849,-4.8887,-4.8911,-4.8998,-4.8885,-4.9086,-4.91,-4.9139,-4.9166,-4.9183,-4.9216,-4.8999,-4.8999,-4.8999,-4.8781,-4.8788,-4.8905,-4.8927,-4.8988,-4.9028,-4.9078,-4.9116,-4.9103,-4.9151,-4.918,-4.9316,-4.9349,-4.9362,-4.9396,-4.9214,-4.9215,-4.9215,-4.9215,-4.8971,-4.9042,-4.9026,-4.9133,-4.914,-4.923,-4.9274,-4.9263,-4.9347,-4.9295,-4.9329,-4.9268,-4.9383,-4.9413,-4.9219,-4.9219,-4.9218,-4.9218,-4.9217,-4.9086,-4.9121,-4.9149,-4.9241,-4.9312,-4.9332,-4.9414,-4.9418,-4.9421,-4.9456,-4.9486,-4.9485,-4.9482,-4.9471,-4.9472,-4.9472,-4.9473,-4.9473,-4.9473,-4.9192,-4.9222,-4.9291,-4.9356,-4.9397,-4.9452,-4.9496,-4.9537,-4.9583,-4.9578,-4.9579,-4.956,-4.9395,-4.9351,-4.9481,-4.9479,-4.9478,-4.9478,-4.9477,-4.9376,-4.9336,-4.9442,-4.9484,-4.956,-4.963,-4.9636,-4.9719,-4.9754,-4.9794,-4.9771,-4.9649,-4.9637,-4.9624,-4.9587,-4.977,-4.977,-4.977,-4.9771,-4.947,-4.9466,-4.9576,-4.9643,-4.9709,-4.9725,-4.9846,-4.9883,-4.9914,-4.9936,-4.9911,-4.9864,-4.9851,-4.9847,-4.9829,-4.9795,-5.0027,-5.0027,-5.0027,-4.9582,-4.9585,-4.9686,-4.9717,-4.9779,-4.9831,-4.9944,-5.0021,-5.0049,-5.0038,-4.9952,-4.9942,-4.9867,-4.9842,-4.9824,-4.9796,-4.9733,0,0]},{"header":{"parameterUnit":"m.s-1","parameterCategory":1,"la1":30.2992,"la2":30.254,"lo1":-89.0895,"lo2":-89.0443,"dy":0.0025,"dx":0.0025,"nx":19,"ny":19,"refTime":"2026-04-03T09:00:00:Z","depth":0,"parameterNumber":3,"parameterNumberName":"V-component_of_WINDS"},"data":[0,0,0,3.1343,3.1343,3.1349,3.1349,3.1361,3.1361,0,0,0,0,0,0,0,0,0,0,0,3.1345,3.1345,3.1343,3.1343,3.1349,3.1349,3.1361,3.1361,0,0,0,0,0,0,0,0,0,0,0,3.1345,3.1345,3.1345,3.1343,3.1349,3.1349,3.1361,3.1355,0,0,0,0,0,0,0,0,0,0,3.1348,3.1353,3.1345,3.1345,3.1343,3.1349,3.1349,3.1354,3.1355,3.136,0,3.1367,0,3.1365,3.1362,3.1362,0,0,0,3.134,3.1352,3.1351,3.1345,3.1344,3.1349,3.1346,3.1355,3.1355,3.1361,3.1367,3.1368,3.1365,3.1362,3.1362,3.141,3.141,0,0,3.134,3.1347,3.1351,3.1352,3.1353,3.1346,3.1346,3.1355,3.1361,3.1367,3.1368,3.1365,3.1362,3.1363,3.1409,3.141,0,0,0,3.1341,3.1347,3.1346,3.1352,3.1353,3.1346,3.1346,3.1361,3.136,3.1368,3.1365,3.1363,3.1363,3.1409,3.1409,3.1437,0,0,0,3.1341,3.1348,3.1346,3.135,3.1353,3.1357,3.1352,3.1359,3.136,3.1365,3.1363,3.1363,3.1408,3.1409,3.1435,3.1447,0,0,0,3.1343,3.1348,3.135,3.135,3.1354,3.1357,3.1356,3.1359,3.1359,3.1362,3.1363,3.1408,3.1409,3.1433,3.1445,3.1463,0,0,0,3.1347,3.1372,3.1351,3.1378,3.1354,3.1374,3.1356,3.137,3.1377,3.1363,3.1409,3.1409,3.1433,3.1443,3.1462,3.148,3.1489,0,0,3.1382,3.1376,3.1391,3.1373,3.14,3.1373,3.1403,3.14,3.1392,3.1404,3.1405,3.1436,3.1445,3.1463,3.1533,3.154,0,0,0,3.1405,3.1416,3.1422,3.143,3.1431,3.1433,3.1426,3.1425,3.1436,3.1401,3.1447,3.1452,3.1462,3.1471,3.1476,3.1485,3.1414,3.1414,3.1413,3.1463,3.1456,3.1481,3.1475,3.1483,3.1477,3.1483,3.1481,3.1468,3.148,3.1482,3.1526,3.1537,3.1541,3.155,3.1492,3.1492,3.1492,3.1492,3.1514,3.1529,3.1516,3.1535,3.1527,3.1542,3.1539,3.153,3.1543,3.1523,3.1531,3.1509,3.1549,3.1556,3.1494,3.1493,3.1493,3.1493,3.1493,3.1551,3.1557,3.1559,3.1573,3.1584,3.1576,3.1591,3.1582,3.1573,3.1581,3.1585,3.1584,3.1583,3.1584,3.1584,3.1584,3.1584,3.1585,3.1585,3.1589,3.159,3.1605,3.1611,3.1617,3.1623,3.1621,3.1626,3.1629,3.1621,3.1621,3.1607,3.1554,3.1541,3.1587,3.1587,3.1586,3.1586,3.1586,3.1643,3.163,3.1653,3.1659,3.1667,3.168,3.167,3.1682,3.1684,3.1692,3.1678,3.1641,3.1633,3.1628,3.1617,3.168,3.168,3.168,3.168,3.1674,3.1671,3.1694,3.1705,3.1715,3.1709,3.1735,3.1734,3.1731,3.1732,3.1722,3.1707,3.1703,3.1698,3.1691,3.1681,3.1758,3.1758,3.1758,3.1707,3.1705,3.1729,3.1729,3.1736,3.1741,3.1766,3.1779,3.1772,3.1761,3.1733,3.173,3.1706,3.1698,3.1685,3.1676,3.1657,0,0]}]]